Satellite: MET-3/5
Catalog number: 21655
Epoch time:      10067.90124691
Element set:    0757
Inclination:      082.5595 deg
RA of node:       019.4825 deg
Eccentricity:    0.0012230
Arg of perigee:   237.9987 deg
Mean anomaly:     121.9978 deg
Mean motion:   13.17023261 rev/day
Decay rate:        5.1e-07 rev/day^2
Epoch rev:           89247
Checksum:              318

Satellite: MET-2/21
Catalog number: 22782
Epoch time:      10067.77557837
Element set:    0717
Inclination:      082.5506 deg
RA of node:       332.1127 deg
Eccentricity:    0.0021676
Arg of perigee:   328.3054 deg
Mean anomaly:     031.6790 deg
Mean motion:   13.83643955 rev/day
Decay rate:       -3.2e-07 rev/day^2
Epoch rev:           83419
Checksum:              311

Satellite: OKEAN-4
Catalog number: 23317
Epoch time:      10067.70682779
Element set:    0172
Inclination:      082.5376 deg
RA of node:       087.6467 deg
Eccentricity:    0.0021106
Arg of perigee:   209.2431 deg
Mean anomaly:     150.7604 deg
Mean motion:   14.82777182 rev/day
Decay rate:       2.76e-06 rev/day^2
Epoch rev:           83156
Checksum:              308

Satellite: NOAA-14
Catalog number: 23455
Epoch time:      10065.45244716
Element set:     972
Inclination:      098.8837 deg
RA of node:       146.8932 deg
Eccentricity:    0.0009604
Arg of perigee:   162.3226 deg
Mean anomaly:     197.8282 deg
Mean motion:   14.13780433 rev/day
Decay rate:        3.0e-07 rev/day^2
Epoch rev:           78298
Checksum:              323

Satellite: NOAA-15
Catalog number: 25338
Epoch time:      10065.20541645
Element set:     291
Inclination:      098.6127 deg
RA of node:       054.0170 deg
Eccentricity:    0.0010964
Arg of perigee:   020.1387 deg
Mean anomaly:     340.0246 deg
Mean motion:   14.24810947 rev/day
Decay rate:       1.98e-06 rev/day^2
Epoch rev:           61408
Checksum:              275

Satellite: RESURS
Catalog number: 25394
Epoch time:      10067.67230692
Element set:    0451
Inclination:      098.3138 deg
RA of node:       091.1898 deg
Eccentricity:    0.0001888
Arg of perigee:   126.9798 deg
Mean anomaly:     233.1559 deg
Mean motion:   14.24194596 rev/day
Decay rate:        4.0e-08 rev/day^2
Epoch rev:           60604
Checksum:              321

Satellite: FENGYUN1
Catalog number: 25730
Epoch time:      10067.83839929
Element set:    0993
Inclination:      098.7783 deg
RA of node:       035.4327 deg
Eccentricity:    0.0023201
Arg of perigee:   188.0427 deg
Mean anomaly:     172.0401 deg
Mean motion:   14.08177448 rev/day
Decay rate:       1.00e-06 rev/day^2
Epoch rev:           55756
Checksum:              305

Satellite: OKEAN-0
Catalog number: 25860
Epoch time:      10066.08984565
Element set:     931
Inclination:      097.8215 deg
RA of node:       042.3221 deg
Eccentricity:    0.0001861
Arg of perigee:   066.2304 deg
Mean anomaly:     293.9091 deg
Mean motion:   14.73618886 rev/day
Decay rate:        4.5e-07 rev/day^2
Epoch rev:           57186
Checksum:              307

Satellite: NOAA-16
Catalog number: 26536
Epoch time:      10066.29799181
Element set:     769
Inclination:      099.1765 deg
RA of node:       081.3396 deg
Eccentricity:    0.0009790
Arg of perigee:   261.9492 deg
Mean anomaly:     098.0587 deg
Mean motion:   14.12550159 rev/day
Decay rate:       2.91e-06 rev/day^2
Epoch rev:           48744
Checksum:              354

Satellite: NOAA-17
Catalog number: 27453
Epoch time:      10065.28004961
Element set:     774
Inclination:      098.4444 deg
RA of node:       119.8053 deg
Eccentricity:    0.0012691
Arg of perigee:   079.8237 deg
Mean anomaly:     280.4387 deg
Mean motion:   14.24135730 rev/day
Decay rate:       -9.9e-07 rev/day^2
Epoch rev:           40005
Checksum:              305

Satellite: NOAA-18
Catalog number: 28654
Epoch time:      10066.49720207
Element set:     260
Inclination:      098.9413 deg
RA of node:       013.1072 deg
Eccentricity:    0.0014173
Arg of perigee:   344.0936 deg
Mean anomaly:     015.9786 deg
Mean motion:   14.11332529 rev/day
Decay rate:       -8.2e-07 rev/day^2
Epoch rev:           24709
Checksum:              290

Satellite: NOAA-19
Catalog number: 33591
Epoch time:      10065.32854554
Element set:     460
Inclination:      098.7788 deg
RA of node:       009.6855 deg
Eccentricity:    0.0013531
Arg of perigee:   218.1336 deg
Mean anomaly:     141.8884 deg
Mean motion:   14.11031813 rev/day
Decay rate:       3.61e-06 rev/day^2
Epoch rev:            5540
Checksum:              297

/EX
SB KEPS @ AMSAT  $ORB10070.M
Orbital Elements  10070.MISC

HR AMSAT ORBITAL ELEMENTS FOR MANNED AND MISCELLANEOUS SATELLITES
FROM WA5QGD FORT WORTH,TX March 11, 2010
Send Subscribe/unsubscribe to KEPS at http://www.amsat.org/mailman/listinfo/kep
BID: ORB10070.M
TO ALL RADIO AMATEURS BT

Satellite: HUBBLE
Catalog number: 20580
Epoch time:      10066.57864224
Element set:    0532
Inclination:      028.4687 deg
RA of node:       183.1574 deg
Eccentricity:    0.0003395
Arg of perigee:   198.8317 deg
Mean anomaly:     161.2293 deg
Mean motion:   15.00913799 rev/day
Decay rate:       5.70e-06 rev/day^2
Epoch rev:           88947
Checksum:              322

